• MPC Preparation (Info)

  • MPEC 2016-O177: 2015 BA519

    The following Minor Planet Electronic Circular may be linked-to from your own Web pages, but must not otherwise be redistributed electronically.

    A form allowing access to any MPEC is at the bottom of this page.


    Read MPEC 2016-O176 Read MPEC 2016-O178


    M.P.E.C. 2016-O177                               Issued 2016 July 17, 10:05 UT
    
         The Minor Planet Electronic Circulars contain information on unusual
             minor planets and routine data on comets.  They are published
        on behalf of Division F of the International Astronomical Union by the
              Minor Planet Center, Smithsonian Astrophysical Observatory,
                              Cambridge, MA 02138, U.S.A.
    
                 Prepared using the Tamkin Foundation Computer Network
    
                                  MPC@CFA.HARVARD.EDU
                URL https://www.minorplanetcenter.net/    ISSN 1523-6714
    
                                      2015 BA519
    
    Observations:
         K15Bp9A  C2013 04 10.41572 13 19 28.032-06 03 20.32         22.6 wLEO177F51
         K15Bp9A  C2013 04 10.42935 13 19 27.934-06 03 19.62         22.1 wLEO177F51
         K15Bp9A  C2013 04 10.45675 13 19 27.767-06 03 18.55         22.5 wLEO177F51
         K15Bp9A  C2014 02 28.50323 13 31 59.261-07 14 40.84         22.3 wLEO177F51
         K15Bp9A  C2014 02 28.51446 13 31 59.213-07 14 40.70         22.6 wLEO177F51
         K15Bp9A  C2014 02 28.52568 13 31 59.172-07 14 40.23         22.7 wLEO177F51
         K15Bp9A  C2014 02 28.53696 13 31 59.113-07 14 39.81         22.6 wLEO177F51
         K15Bp9A* C2015 01 26.62004 13 41 51.517-08 10 07.02         22.7 wLEO177F51
         K15Bp9A  C2015 01 26.63199 13 41 51.513-08 10 07.33         22.7 wLEO177F51
         K15Bp9A  C2015 01 26.64398 13 41 51.506-08 10 07.14         22.4 wLEO177F51
         K15Bp9A  C2015 03 22.45668 13 39 22.584-07 51 42.51         22.8 wLEO177F51
         K15Bp9A  C2015 03 22.47999 13 39 22.457-07 51 41.42         22.5 wLEO177F51
         K15Bp9A  C2015 03 22.49160 13 39 22.402-07 51 41.26         22.5 wLEO177F51
         K15Bp9A  C2015 04 21.40947 13 36 31.804-07 34 25.89         22.3 wLEO177F51
         K15Bp9A  C2015 04 21.43656 13 36 31.625-07 34 25.19         22.2 wLEO177F51
         K15Bp9A  C2015 04 21.45014 13 36 31.535-07 34 24.61         22.4 wLEO177F51
    
    Observer details:
    F51 Pan-STARRS 1, Haleakala.  Observers B. Gibson, T. Goggia, N. Primak,
        A. Schultz, M. Willman.  Measurers K. Chambers, S. Chastel, Y.-T. Chen,
        L. Denneau, H. Flewelling, M. Holman, M. Huber, R. Jedicke, M. Lackner,
        E. Lilly, H.-W. Lin, E. Magnier, M. Micheli, M. Payne, P. Veres,
        R. Wainscoat, C. Waters, R. Weryk.  1.8-m Ritchey-Chretien + CCD.
    
    Orbital elements:
    2015 BA519
    Epoch 2016 July 31.0 TT = JDT 2457600.5                 MPC
    M   7.00564              (2000.0)            P               Q
    n   0.00392781     Peri.   44.28487     -0.95595631     +0.29264606
    a  39.7834410      Node   152.70789     -0.28107273     -0.89069110
    e   0.2234079      Incl.    2.81146     -0.08453201     -0.34789029
    P 251              H    7.4           G   0.15           U   3
    Residuals in seconds of arc
    130410 F51  0.1+  0.2-    140228 F51  0.1-  0.3+    150322 F51  0.1+  0.1-
    130410 F51  0.1-  0.0     150126 F51  0.1+  0.2+    150421 F51  0.2+  0.2+
    130410 F51  0.1-  0.0     150126 F51  0.0   0.2-    150421 F51  0.1-  0.1-
    140228 F51  0.2+  0.1+    150126 F51  0.2-  0.0     150421 F51  0.2-  0.1+
    140228 F51  0.1+  0.1-    150322 F51  0.0   0.3-
    140228 F51  0.1+  0.1+    150322 F51  0.0   0.1+
    
    Ephemeris:
    2015 BA519               a,e,i = 39.78, 0.22, 3                  q = 30.896
    Date    TT    R. A. (2000) Decl.     Delta      r     Elong.  Phase     V
    2016 06 17    13 41 12.9 -07 58 43  30.4747 30.9998   120.3     1.6    22.5
    ...
    2016 07 02    13 40 50.9 -07 57 35  30.7072 31.0016   105.9     1.8    22.5
    ...
    2016 07 10    13 40 49.7 -07 58 01  30.8395 31.0026    98.3     1.9    22.5
    ...
    2016 07 16    13 40 53.8 -07 58 49  30.9405 31.0033    92.6     1.9    22.5
    2016 07 17    13 40 54.9 -07 59 00  30.9574 31.0035    91.7     1.9    22.5
    2016 07 18    13 40 56.1 -07 59 11  30.9743 31.0036    90.7     1.9    22.5
    ...
    2016 07 24    13 41 05.8 -08 00 32  31.0757 31.0043    85.0     1.9    22.5
    ...
    2016 08 01    13 41 25.4 -08 02 56  31.2094 31.0053    77.5     1.8    22.6
    ...
    2016 08 16    13 42 21.4 -08 09 14  31.4478 31.0071    63.4     1.7    22.6
    
    A. U. Tomatic                (C) Copyright 2016 MPC           M.P.E.C. 2016-O177
    

    Read MPEC 2016-O176 Read MPEC 2016-O178


    MPEC number:

    Enter an MPEC number in one of the following forms:

    • 1997-B01 (the full form)
    • J97B01 (the packed version of the full form)
    • B01 (the abbreviated form)